Location: Malvern Link
(52.1333°N, 2.3000°W)
Time: 06:08:20
(UTC+00:00)

SPROUT - Pass Details

Date: 06 July 2022
Orbit: 588 x 598 km, 97.9° (Epoch: 18 August)

Event Time Altitude Azimuth Distance (km) Brightness Sun altitude
Exits shadow 23:40:01 - 116° (ESE) 1,965 ? -14.9°
Reaches altitude 10° 23:40:10 10° 115° (ESE) 1,919 ? -14.9°
Maximum altitude 23:43:30 24° 62° (ENE) 1,247 ? -15.0°
Drops below altitude 10° 23:46:51 10° 8° (N) 1,934 ? -15.0°
Sets 23:49:20 0° 355° (N) 2,842 ? -15.1°
